STARLINK-5716, 56504

Orbit data source: Space-Track

STARLINK-5716, 56504 is a payload satellite owned by SpaceX/Seattle (US) in LEO that was launched on Sun, 14 May 2023 UTC via an FALCON 9 launch vehicle from the Air Force Eastern Test Range (AFETR). Payload-class satellites include a variety of spacecraft equipped with specific instruments for various scientific and technological missions. These include communications satellites like Starlink; space stations such as the ISS; scientific satellites like the Hubble; Earth observation satellites from companies like Planet Labs, Umbra, and HawkEye 360; GPS; miniature CubeSats for education and research; and military/defense satellites.

Loading next visibility...
Identifier
56504, 2023-065B
Orbit
LEO
Country
Flag of USUS
Related business
Manufacturer
SpaceX/Seattle
Mission
Operational Commercial Communications
Bus & Motor
STARLINK, Unknown motor
Mass
305 kg wet, ~290 kg dry
Launch date (UTC)
2023-05-14 (3 years ago)
Launch vehicle
FALCON 9
Launch site
Air Force Eastern Test Range (AFETR)
Object type
Payload
Rocket body
Debris
Shape & HBR
Box + 1 Pan, 10.1 m
Radar Cross Section
11.087 m², Large (>1 m²)

Expand to show TLE details & history
Last TLE update: 3 days ago

TLE from 3 days ago
0 STARLINK-5716
1 56504U 23065B   26170.58594052  .00000465  00000-0  26414-4 0  9996
2 56504  43.0047 357.0147 0001861 268.4217  91.6422 15.27578969172185
Epoch: 2026-06-19T14:03Z
TLE epoch observation values (Epoch: 2026-06-19T14:03:45.260Z)
Latitude
-0.00001°
Longitude
-121.73669°
Altitude
482.865 km
Speed
7.626 km/s
True Right ascension
23h 48m 03s
True Declination
0° 00' 00"
Sunlit
Object was in daylight at epoch
Visualization orbit readout
Latitude
Unknown
Longitude
Unknown
Altitude
Unknown
Speed
Unknown
Apparent Right ascension
Unknown
Apparent Declination
Unknown
Sunlit
N/A
Visualization observer readout
Local Sidereal Time
21:27:14
Azimuth
Unknown
Elevation
Unknown
Doppler factor
Unknown
Orbital elements
Apogee altitude
486.274 km
Perigee altitude
483.719 km
Semi-major axis
6,863.134 km
Eccentricity
0.00019
Inclination
43.0047°
RAAN
357.0147°
Arg. of periapsis
268.4217°
True anomaly
91.66352°
Mean anomaly
91.6422°
Eccentric anomaly
91.65286°
Mean motion
3.81733 °/min
Orbital period
94.31 mins
BSTAR
0.000026414
Loading maneuver chart data...
Computing Atmospheric mass density...
Loading historical data...
Loading historical data...
Loading historical data...
Loading historical data...
Loading historical data...
Loading historical data...
Loading historical data...

Documentation

Showing up to 5 results
|